Regional Weather Roundup
Issued by NWS

Home | Current Version | Previous Version | Graphics & Text | Print | Product List | Glossary On
Versions: 1 2 3 4 5 6 7 8 9 10 11 12 13 14 15 16 17 18 19 20 21 22 23 24 25 26 27 28 29 30 31 32 33 34 35 36 37 38 39 40 41 42 43 44 45 46 47 48 49 50
000
ASUS44 KMEG 250910
RWRTN
TENNESSEE HOURLY STATE WEATHER ROUNDUP
NATIONAL WEATHER SERVICE MEMPHIS TN
400 AM CDT MON JUL 25 2016

TNZ002-004-019-021-049-052-054-088>092-251000-
WEST TENNESSEE

CITY           SKY/WX    TMP DP  RH WIND       PRES   REMARKS
MEMPHIS INTL   CLEAR     80  75  84 CALM      29.98R
NWS MEMPHIS      N/A     77 N/A N/A MISG        N/A
JACKSON        CLEAR     75  74  96 CALM      29.99S
DYERSBURG      CLEAR    N/A N/A N/A MISG        N/A
UNION CITY     CLEAR     77  75  94 S3        29.99R
PARIS          CLEAR     72  72 100 CALM      30.01F
LEXINGTON        N/A     73  73 100 CALM      30.00S VSB 3/4
$$

TNZ008-025-027-028-033-062-065-066-251000-
NORTH MIDDLE TENNESSEE

CITY           SKY/WX    TMP DP  RH WIND       PRES   REMARKS
NASHVILLE      MOCLDY    78  73  84 CALM      30.03S
CLARKSVILLE    CLOUDY    76  73  91 S3        30.01S
SMYRNA         CLEAR     76  74  93 CALM      30.03S
COOKEVILLE     CLEAR     73  73 100 CALM      30.04F
CROSSVILLE     CLEAR     70  69  97 CALM      30.11S FOG
$$

TNZ061-075-076-078-094-096-097-251000-
SOUTH MIDDLE TENNESSEE

CITY           SKY/WX    TMP DP  RH WIND       PRES   REMARKS
FAYETTEVILLE   CLEAR     75  73  94 CALM      30.04S
TULLAHOMA      CLEAR     72  72 100 CALM      30.06F
WINCHESTER     CLEAR     72  72 100 CALM      30.05S
MCMINNVILLE    CLEAR     73  73 100 N30G66    30.05F
COLUMBIA       CLEAR    N/A N/A N/A CALM      30.02R
SHELBYVILLE    CLEAR     75  73  94 CALM      30.05S
$$

TNZ017-018-042-046-047-251000-
NORTHEAST TENNESSEE

CITY           SKY/WX    TMP DP  RH WIND       PRES   REMARKS
TRI CITIES     PTCLDY    71  68  90 CALM      30.09S
ELIZABETHTON   PTCLDY    72  68  88 CALM      30.10R
$$

TNZ012-013-036-069-073-074-251000-
CENTRAL EAST TENNESSEE

CITY           SKY/WX    TMP DP  RH WIND       PRES   REMARKS
KNOXVILLE      CLEAR     77  74  90 CALM      30.04S
OAK RIDGE      CLEAR     77  72  84 S3        30.06S
GATLINBURG     CLEAR     72  68  88 CALM      30.06R
MORRISTOWN     CLEAR     75  72  88 CALM      30.06S
$$

TNZ083-085-099-251000-
SOUTHEAST TENNESSEE

CITY           SKY/WX    TMP DP  RH WIND       PRES   REMARKS
CHATTANOOGA    CLEAR     75  72  90 CALM      30.04S
$$

SKY/WX REPORTED AS FAIR MEANS FEW OR NO CLOUDS BELOW
12 THOUSAND FEET.





USA.gov is the U.S. government's official web portal to all federal, state and local government web resources and services.